STARLINK-33710, 63434

Orbit data source: Space-Track

STARLINK-33710, 63434 is a payload satellite owned by SpaceX/Seattle (US) in LEO that was launched on Fri, 04 Apr 2025 UTC via an FALCON 9 launch vehicle from the Air Force Western Test Range (AFWTR). Payload-class satellites include a variety of spacecraft equipped with specific instruments for various scientific and technological missions. These include communications satellites like Starlink; space stations such as the ISS; scientific satellites like the Hubble; Earth observation satellites from companies like Planet Labs, Umbra, and HawkEye 360; GPS; miniature CubeSats for education and research; and military/defense satellites.

Loading next visibility...
Identifier
63434, 2025-069B
Orbit
LEO
Country
Flag of USUS
Related business
Manufacturer
SpaceX/Seattle
Mission
Operational Commercial Communications
Bus & Motor
STARLINK V2MO, Unknown motor
Mass
575 kg wet, ~530 kg dry
Launch date (UTC)
2025-04-04 (8 months ago)
Launch vehicle
FALCON 9
Launch site
Air Force Western Test Range (AFWTR)
Object type
Payload
Rocket body
Debris
Shape & HBR
Box + 2 Pan, 17.7 m
Radar Cross Section
36.964 m², Large (>1 m²)

Expand to show TLE details & history
Last TLE update: 20 hours ago

TLE from 20 hours ago
0 STARLINK-33710
1 63434U 25069B   25348.79444710  .00022892  00000-0  78251-3 0  9999
2 63434  53.1593 177.0437 0001402  77.7287 282.3871 15.30205623 40408
Epoch: 2025-12-14T19:04Z
TLE epoch observation values (Epoch: 2025-12-14T19:04:00.229Z)
Latitude
0.00001°
Longitude
167.3405°
Altitude
475.892 km
Speed
7.629 km/s
True Right ascension
11h 48m 10s
True Declination
0° 00' 00"
Sunlit
Object was in daylight at epoch
Visualization orbit readout
Latitude
Unknown
Longitude
Unknown
Altitude
Unknown
Speed
Unknown
Apparent Right ascension
Unknown
Apparent Declination
Unknown
Sunlit
N/A
Visualization observer readout
Local Sidereal Time
13:23:56
Azimuth
Unknown
Elevation
Unknown
Doppler factor
Unknown
Orbital elements
Apogee altitude
476.416 km
Perigee altitude
474.494 km
Semi-major axis
6,853.592 km
Eccentricity
0.00014
Inclination
53.1593°
RAAN
177.0437°
Arg. of periapsis
77.7287°
True anomaly
282.37141°
Mean anomaly
282.3871°
Eccentric anomaly
282.37925°
Mean motion
3.8253 °/min
Orbital period
94.11 mins
BSTAR
0.00078251
Loading maneuver chart data...
Computing Atmospheric mass density...
Loading historical data...
Loading historical data...
Loading historical data...
Loading historical data...
Loading historical data...
Loading historical data...
Loading historical data...

Documentation

Showing up to 5 results
|